Location: Calmejanne
(44.7523°N, 1.9418°E)
Time: 11:15:40
(UTC+00:00)

Okean 1-7 Rocket - Pass Details

Date: 14 May 2026
Orbit: 611 x 641 km, 82.5° (Epoch: 6 June)

Event Time Altitude Azimuth Distance (km) Brightness Sun altitude
Rises 21:22:42 0° 354° (N) 2,925 8.0 -18.3°
Reaches altitude 10° 21:24:58 10° 359° (N) 2,018 7.0 -18.5°
Maximum altitude 21:29:24 60° 79° (E) 730 3.7 -19.0°
Enters shadow 21:30:36 43° 135° (SE) 893 3.9 -19.1°
